Simultaneous Nadir Overpasses (SNOs) Predictions

Prediction of SNOs between GOES-14 and NPP Satellite Orbit:

Table of predicted SNOs for the next 14.0 days since TLE Epoch: 11/26/2022
Index Date Time (GOES-14) GOES-14 Lat,Lon NPP Lat,Lon Distance(km) Time Diff (sec)
1 11/26/2022 08:05:51 0.02,-104.33 -0.86,-100.44 444.18 80
2 11/27/2022 20:27:46 0.01,-104.04 -0.37,-105.72 191.68 80
3 11/28/2022 20:11:40 -0.00,-104.04 0.65,-101.19 326.13 80
4 11/30/2022 08:33:27 -0.02,-104.35 0.47,-106.46 241.00 80
5 12/01/2022 08:12:02 -0.01,-104.34 -0.55,-101.92 275.29 80
6 12/02/2022 20:33:56 0.03,-104.02 -0.67,-107.21 363.10 80
7 12/03/2022 20:17:51 0.02,-104.03 0.35,-102.67 155.22 80
8 12/05/2022 08:39:38 -0.04,-104.37 0.77,-107.95 408.00 80
9 12/06/2022 08:18:13 -0.02,-104.36 -0.25,-103.41 108.67 80
10 12/08/2022 20:21:20 0.03,-104.02 0.01,-104.15 14.27 80
